OI95 weather

Children's Hospital Heliport
Columbus, Ohio, United States

Public forecast

Using degrees Fahrenheit for public forecast. Weather courtesy of forecast.io.

METAR (pilot weather report)

Closest report is John Glenn Columbus International Airport, 4.9 nm (9.1 km) ENE. Retrieved 2019/05/21 02:51 UTC (1 hour ago):

KCMH 210251Z 33007KT 10SM FEW040 SCT250 12/07 A3006 RMK AO2 SLP178 T01220072 51007

TAF (pilot weather forecast)

Forecast is more than 12 hours old.

Closest forecast is John Glenn Columbus International Airport, 4.9 nm (9.1 km) ENE. Retrieved 2019/05/20 00:36 UTC (1 day ago):

TAF KCMH 202333Z 2100/2124 30011KT P6SM SCT045 BKN250 TEMPO 2100/2101 BKN045 FM210300 36004KT P6SM BKN250 FM211200 07008KT P6SM BKN070 FM211700 06009KT P6SM SCT100 BKN250